Location: Pacheco
(37.9835°N, 122.0752°W)
Time: 10:56:28
(UTC+00:00)

Cosmos 1933 Rocket - Pass Details

Date: 13 April 2024
Orbit: 602 x 627 km, 82.5° (Epoch: 24 May)

Event Time Altitude Azimuth Distance (km) Brightness Sun altitude
Rises 12:50:43 0° 353° (N) 2,887 7.2 -9.2°
Reaches altitude 10° 12:52:57 10° 354° (N) 1,974 6.3 -8.8°
Maximum altitude 12:57:19 83° 81° (E) 618 3.6 -8.0°
Drops below altitude 10° 13:01:38 10° 171° (S) 1,946 6.0 -7.1°
Sets 13:03:50 0° 172° (S) 2,842 6.9 -6.7°
